Middlebury State AP, Middlebu, VT

6:14 PM EST on November 11, 2019 (GMT -0500)
Middlebury State AP, Middlebu

Weather History for K6B0 - August, 2019

Change the Weather History Date:

Saturday, August 10, 2019

  Actual Average (KRUT) Record (KRUT)
Temperature  
Mean Temperature 59 °F -  
Max Temperature 68 °F 80 °F 92 °F (1949)
Min Temperature 51 °F 59 °F 44 °F (1989)
Degree Days  
Heating Degree Days 6    
Growing Degree Days 9 (Base 50)    
Moisture  
Dew Point 54 °F    
Average Humidity 81    
Maximum Humidity 99    
Minimum Humidity 50    
Precipitation  
Precipitation 0.15 in - - ()
Sea Level Pressure  
Sea Level Pressure 29.80 in    
Wind  
Wind Speed 3 mph ()    
Max Wind Speed 16 mph    
Max Gust Speed 23 mph    
Visibility 10.0 miles    
Events Rain , Thunderstorm    
Averages and records for this station are not official NWS values.
T = Trace of Precipitation, MM = Missing Value Source: Averaged Metar Reports

Daily Weather History Graph

Daily Weather History Graph

Search for Another Location

Airport or City:

Astronomy

Aug. 10, 2019 Rise Set
Actual Time 5:50 AM EDT 8:04 PM EDT
Civil Twilight 5:18 AM EDT 8:36 PM EDT
Nautical Twilight 4:38 AM EDT 9:15 PM EDT
Astronomical Twilight 3:55 AM EDT 9:58 PM EDT
Moon 4:48 PM EDT (8/10) 1:21 AM EDT (8/10)
Length of Visible Light 15h 17m
Length of Day
14h 14m
Waxing Gibbous, 79% of the Moon is Illuminated
Aug 10
Waxing Gibbous
Aug 15
Full
Aug 23
Last Quarter
Aug 30
New
Sep 5
First Quarter

Hourly Weather History & Observations

Time (EDT) Temp. Dew Point Humidity Pressure Visibility Wind Dir Wind Speed Gust Speed Precip Events Conditions
12:16 AM 59.7 °F 56.7 °F 90% 29.74 in 10.0 mi South 3.5 mph - N/A Thunderstorm Overcast
12:35 AM 60.4 °F 54.3 °F 80% 29.77 in 10.0 mi North 13.8 mph - N/A   Overcast
12:36 AM 60.3 °F 54.0 °F 80% 29.77 in 10.0 mi North 11.5 mph 16.1 mph N/A   Overcast
12:55 AM 60.1 °F 52.7 °F 77% 29.76 in 10.0 mi NNE 6.9 mph - N/A Rain Light Rain
12:59 AM 59.7 °F 53.1 °F 79% 29.75 in 10.0 mi NNE 5.8 mph - N/A Rain Rain
1:18 AM 57.7 °F 55.0 °F 91% 29.74 in 10.0 mi Calm Calm - 0.02 in Rain Light Rain
1:36 AM 56.8 °F 55.4 °F 95% 29.74 in 10.0 mi ESE 3.5 mph - 0.02 in Rain Light Rain
1:55 AM 57.2 °F 54.3 °F 90% 29.74 in 10.0 mi Calm Calm - 0.02 in   Overcast
2:15 AM 57.0 °F 55.0 °F 93% 29.74 in 10.0 mi Calm Calm - 0.01 in Rain Light Rain
2:16 AM 57.0 °F 55.2 °F 94% 29.74 in 10.0 mi Calm Calm - 0.01 in Rain Light Rain
2:38 AM 57.0 °F 55.2 °F 94% 29.74 in 10.0 mi Calm Calm - 0.01 in   Overcast
2:57 AM 57.0 °F 55.8 °F 96% 29.74 in 10.0 mi SSE 4.6 mph - 0.01 in   Overcast
3:16 AM 57.2 °F 54.9 °F 92% 29.74 in 10.0 mi Calm Calm - 0.01 in Rain Light Rain
3:35 AM 56.7 °F 55.4 °F 96% 29.74 in 10.0 mi Calm Calm - 0.01 in Rain Light Rain
3:36 AM 56.7 °F 55.4 °F 96% 29.74 in 10.0 mi Calm Calm - 0.01 in Rain Light Rain
3:55 AM 57.4 °F 54.7 °F 91% 29.74 in 10.0 mi SSE 3.5 mph - 0.01 in   Overcast
4:00 AM 57.4 °F 54.7 °F 91% 29.74 in 10.0 mi Calm Calm - N/A   Overcast
4:17 AM 57.2 °F 55.6 °F 94% 29.74 in 10.0 mi SE 3.5 mph - N/A   Overcast
4:35 AM 57.4 °F 55.6 °F 94% 29.74 in 10.0 mi SE 3.5 mph - N/A   Overcast
4:55 AM 57.4 °F 55.9 °F 95% 29.74 in 10.0 mi Calm Calm - 0.01 in   Overcast
5:15 AM 57.2 °F 56.3 °F 97% 29.75 in 10.0 mi Calm Calm - N/A   Overcast
5:38 AM 57.4 °F 55.6 °F 94% 29.75 in 10.0 mi Calm Calm - N/A   Overcast
5:56 AM 57.4 °F 56.3 °F 96% 29.75 in 10.0 mi Calm Calm - N/A   Overcast
6:16 AM 57.2 °F 56.3 °F 97% 29.76 in 10.0 mi Calm Calm - N/A   Overcast
6:36 AM 57.6 °F 56.3 °F 96% 29.76 in 10.0 mi Calm Calm - N/A   Drizzle
6:55 AM 58.1 °F 56.3 °F 94% 29.76 in 10.0 mi Calm Calm - N/A Rain Rain
6:59 AM 58.1 °F 56.1 °F 93% 29.76 in 10.0 mi Calm Calm - N/A Rain Light Rain
7:17 AM 58.5 °F 56.3 °F 93% 29.76 in 10.0 mi Calm Calm - N/A   Overcast
7:35 AM 59.5 °F 56.3 °F 89% 29.76 in 10.0 mi Calm Calm - N/A   Scattered Clouds
7:55 AM 60.8 °F 57.0 °F 87% 29.77 in 10.0 mi Calm Calm - N/A   Clear
7:56 AM 61.0 °F 57.0 °F 87% 29.77 in 10.0 mi Calm Calm - N/A   Clear
8:15 AM 61.9 °F 56.7 °F 83% 29.77 in 10.0 mi SSE 4.6 mph - N/A   Clear
8:16 AM 61.9 °F 56.8 °F 84% 29.78 in 10.0 mi SSE 3.5 mph - N/A   Clear
8:38 AM 61.9 °F 56.3 °F 82% 29.78 in 10.0 mi SW 4.6 mph - N/A   Mostly Cloudy
8:57 AM 62.1 °F 55.8 °F 80% 29.78 in 10.0 mi Calm Calm - N/A   Overcast
9:15 AM 62.6 °F 56.8 °F 81% 29.78 in 10.0 mi SSW 4.6 mph - N/A   Mostly Cloudy
9:16 AM 62.8 °F 56.8 °F 81% 29.78 in 10.0 mi South 3.5 mph - N/A   Mostly Cloudy
9:35 AM 63.9 °F 56.5 °F 77% 29.79 in 10.0 mi Calm Calm - N/A   Scattered Clouds
9:55 AM 64.8 °F 55.6 °F 72% 29.79 in 10.0 mi WNW 4.6 mph - N/A   Mostly Cloudy
9:59 AM 64.9 °F 56.1 °F 73% 29.79 in 10.0 mi NW 4.6 mph - N/A   Mostly Cloudy
10:17 AM 65.3 °F 55.0 °F 69% 29.79 in 10.0 mi NNW 8.1 mph - N/A   Overcast
10:35 AM 63.5 °F 52.3 °F 67% 29.79 in 10.0 mi NNW 5.8 mph - N/A   Overcast
10:55 AM 64.0 °F 54.3 °F 71% 29.79 in 10.0 mi NNW 3.5 mph - N/A   Mostly Cloudy
10:56 AM 64.2 °F 54.1 °F 70% 29.79 in 10.0 mi WNW 3.5 mph - N/A   Mostly Cloudy
11:15 AM 64.4 °F 53.1 °F 67% 29.80 in 10.0 mi NNW 8.1 mph - N/A   Overcast
11:16 AM 64.4 °F 53.2 °F 67% 29.80 in 10.0 mi NNW 8.1 mph - N/A   Overcast
11:38 AM 63.1 °F 52.7 °F 69% 29.80 in 10.0 mi North 4.6 mph - N/A Rain Light Rain
11:56 AM 64.4 °F 52.2 °F 64% 29.80 in 10.0 mi Calm Calm - N/A   Overcast
12:15 PM 65.3 °F 52.5 °F 63% 29.80 in 10.0 mi Calm Calm - N/A   Overcast
12:16 PM 65.5 °F 52.7 °F 63% 29.80 in 10.0 mi Calm Calm - N/A   Overcast
12:35 PM 65.8 °F 51.4 °F 60% 29.79 in 10.0 mi NW 3.5 mph - N/A   Overcast
12:36 PM 65.8 °F 51.6 °F 60% 29.79 in 10.0 mi NNW 4.6 mph - N/A   Overcast
12:55 PM 64.4 °F 52.0 °F 64% 29.80 in 10.0 mi North 6.9 mph - N/A Rain Light Rain
1:18 PM 66.6 °F 51.6 °F 59% 29.79 in 10.0 mi NNW 5.8 mph - N/A   Mostly Cloudy
1:36 PM 65.1 °F 50.7 °F 60% 29.79 in 10.0 mi NNW 6.9 mph - N/A   Overcast
1:55 PM 64.6 °F 51.6 °F 63% 29.79 in 10.0 mi NW 5.8 mph - N/A Rain Light Rain
1:56 PM 64.6 °F 51.8 °F 63% 29.79 in 10.0 mi NNW 4.6 mph - N/A Rain Light Rain
2:15 PM 66.7 °F 51.3 °F 57% 29.79 in 10.0 mi NW 4.6 mph - N/A   Scattered Clouds
2:16 PM 66.7 °F 50.9 °F 57% 29.79 in 10.0 mi WNW 4.6 mph - N/A   Scattered Clouds
2:38 PM 67.8 °F 49.5 °F 52% 29.79 in 10.0 mi North 4.6 mph - N/A   Clear
2:56 PM 67.5 °F 48.4 °F 50% 29.79 in 10.0 mi West 4.6 mph - N/A   Scattered Clouds
3:16 PM 64.8 °F 52.2 °F 64% 29.80 in 10.0 mi SW 3.5 mph - N/A Rain Light Rain
3:35 PM 64.4 °F 51.6 °F 63% 29.80 in 10.0 mi SW 5.8 mph - N/A   Mostly Cloudy
3:36 PM 64.6 °F 51.4 °F 62% 29.80 in 10.0 mi SSW 6.9 mph - N/A   Mostly Cloudy
3:55 PM 66.4 °F 52.5 °F 61% 29.79 in 10.0 mi Calm Calm - N/A   Mostly Cloudy
4:17 PM 65.7 °F 49.5 °F 56% 29.80 in 10.0 mi WNW 4.6 mph - N/A   Overcast
4:35 PM 66.0 °F 50.9 °F 58% 29.80 in 10.0 mi NW 4.6 mph - N/A   Overcast
4:55 PM 67.3 °F 52.7 °F 59% 29.80 in 10.0 mi NNW 4.6 mph - N/A   Overcast
4:56 PM 67.5 °F 52.3 °F 58% 29.80 in 10.0 mi NW 5.8 mph - N/A   Mostly Cloudy
5:15 PM 65.7 °F 53.8 °F 65% 29.80 in 10.0 mi Calm Calm - N/A   Mostly Cloudy
5:16 PM 65.7 °F 53.8 °F 65% 29.80 in 10.0 mi Calm Calm - N/A   Mostly Cloudy
5:38 PM 66.6 °F 52.0 °F 59% 29.81 in 10.0 mi North 3.5 mph - N/A   Overcast
5:56 PM 66.4 °F 51.8 °F 59% 29.82 in 10.0 mi North 16.1 mph 23.0 mph N/A Thunderstorm Overcast
6:16 PM 60.8 °F 51.3 °F 71% 29.84 in 10.0 mi North 9.2 mph - 0.01 in Rain Heavy Rain
6:35 PM 57.6 °F 53.1 °F 85% 29.84 in 10.0 mi North 5.8 mph - 0.10 in Rain Light Rain
6:36 PM 57.6 °F 53.1 °F 85% 29.84 in 10.0 mi NNE 4.6 mph - 0.10 in Rain Light Rain
6:55 PM 57.6 °F 54.1 °F 88% 29.84 in 10.0 mi Calm Calm - 0.10 in Rain Light Rain
7:18 PM 57.7 °F 55.2 °F 91% 29.85 in 10.0 mi Calm Calm - N/A   Scattered Clouds
7:35 PM 56.5 °F 54.7 °F 94% 29.85 in 10.0 mi ESE 3.5 mph - N/A   Scattered Clouds
7:55 PM 55.9 °F 54.5 °F 95% 29.86 in 10.0 mi Calm Calm - N/A   Mostly Cloudy
7:56 PM 55.8 °F 54.5 °F 96% 29.86 in 10.0 mi Calm Calm - N/A   Mostly Cloudy
8:15 PM 54.7 °F 53.8 °F 97% 29.87 in 10.0 mi SE 3.5 mph - N/A   Scattered Clouds
8:16 PM 54.7 °F 53.8 °F 97% 29.87 in 10.0 mi ESE 4.6 mph - N/A   Scattered Clouds
8:38 PM 53.8 °F 52.9 °F 97% 29.87 in 10.0 mi Calm Calm - N/A   Clear
8:56 PM 53.1 °F 52.2 °F 97% 29.88 in 10.0 mi Calm Calm - N/A   Clear
9:16 PM 52.7 °F 52.0 °F 97% 29.88 in 10.0 mi Calm Calm - N/A   Clear
9:35 PM 52.3 °F 51.8 °F 98% 29.89 in 10.0 mi Calm Calm - N/A   Scattered Clouds
9:36 PM 52.3 °F 51.8 °F 98% 29.89 in 10.0 mi Calm Calm - N/A   Scattered Clouds
9:55 PM 52.3 °F 51.8 °F 98% 29.89 in 10.0 mi Calm Calm - N/A   Scattered Clouds
9:59 PM 52.3 °F 51.8 °F 98% 29.89 in 10.0 mi Calm Calm - N/A   Clear
10:18 PM 52.0 °F 51.4 °F 98% 29.89 in 10.0 mi Calm Calm - N/A   Clear
10:36 PM 51.6 °F 50.9 °F 97% 29.89 in 10.0 mi Calm Calm - N/A   Clear
10:55 PM 51.1 °F 50.7 °F 99% 29.89 in 10.0 mi Calm Calm - N/A   Clear
11:15 PM 51.3 °F 50.7 °F 98% 29.90 in 10.0 mi ESE 4.6 mph - N/A   Clear
11:16 PM 51.3 °F 50.7 °F 98% 29.90 in 10.0 mi ESE 3.5 mph - N/A   Clear
11:38 PM 51.4 °F 50.9 °F 98% 29.90 in 10.0 mi Calm Calm - N/A   Clear
11:56 PM 51.3 °F 50.7 °F 98% 29.91 in 10.0 mi Calm Calm - N/A   Clear